This is the latest recevied weather packets stored in our database for station/object KE0TNI-13. If no packets are shown the sender has not sent any weather packets the latest 10 day(s).
| Time | Temp. | Humidity | Pressure | Rain* | Wind** | Luminosity | Snow |
|---|---|---|---|---|---|---|---|
| 1777905009 | 9.44° C | 34% | 1016.3 hPa | 0 mm | - | 111 W/m² | - |
| 1777904706 | 9.44° C | 34% | 1016.6 hPa | 0 mm | - | 113 W/m² | - |
| 1777904403 | 9.44° C | 34% | 1016.7 hPa | 0 mm | - | 125 W/m² | - |
| 1777904100 | 8.89° C | 34% | 1016.5 hPa | 0 mm | - | 123 W/m² | - |
| 1777903796 | 8.89° C | 35% | 1016.5 hPa | 0 mm | - | 109 W/m² | - |
| 1777903493 | 8.89° C | 34% | 1016.7 hPa | 0 mm | - | 88 W/m² | - |
| 1777903189 | 8.89° C | 34% | 1016.7 hPa | 0 mm | - | 73 W/m² | - |
| 1777902886 | 8.33° C | 35% | 1016.7 hPa | 0 mm | - | 70 W/m² | - |
| 1777902583 | 8.33° C | 36% | 1016.7 hPa | 0 mm | - | 61 W/m² | - |
| 1777902280 | 8.33° C | 36% | 1016.2 hPa | 0 mm | - | 55 W/m² | - |
| 1777901978 | 7.78° C | 36% | 1016.3 hPa | 0 mm | - | 58 W/m² | - |
| 1777901675 | 7.78° C | 36% | 1016.5 hPa | 0 mm | - | 51 W/m² | - |
| 1777901372 | 7.78° C | 36% | 1016.5 hPa | 0 mm | - | 34 W/m² | - |
| 1777901070 | 8.33° C | 34% | 1016.2 hPa | 0 mm | - | 26 W/m² | - |
| 1777900767 | 8.33° C | 34% | 1016.1 hPa | 0 mm | - | 27 W/m² | - |
| 1777900464 | 8.89° C | 33% | 1016.3 hPa | 0 mm | - | 28 W/m² | - |
| 1777900161 | 8.33° C | 33% | 1016.3 hPa | 0 mm | - | 30 W/m² | - |
| 1777899858 | 8.89° C | 33% | 1015.9 hPa | 0 mm | - | 31 W/m² | - |
| 1777899554 | 8.89° C | 32% | 1016.2 hPa | 0 mm | - | 33 W/m² | - |
| 1777899252 | 8.33° C | 33% | 1016.3 hPa | 0 mm | - | 35 W/m² | - |
| 1777898949 | 8.33° C | 33% | 1016.2 hPa | 0 mm | - | 31 W/m² | - |
| 1777898646 | 8.33° C | 32% | 1016.1 hPa | 0 mm | - | 27 W/m² | - |
| 1777898344 | 8.33° C | 32% | 1016.3 hPa | 0 mm | - | 19 W/m² | - |
| 1777898041 | 8.33° C | 32% | 1016.2 hPa | 0 mm | - | 16 W/m² | - |
| 1777897737 | 7.78° C | 32% | 1016.1 hPa | 0 mm | - | 13 W/m² | - |
* Rain latest hour (hover to see other rain measurements)
** Current wind speed in m/s (hover to see current wind gust speed)